Location: Dover
(48.8500°N, 53.9833°W)
Time: 07:56:09
(UTC+00:00)

Cosmos 1674 Rocket - Pass Details

Date: 14 November 2025
Orbit: 595 x 623 km, 82.5° (Epoch: 12 December)

Event Time Altitude Azimuth Distance (km) Brightness Sun altitude
Rises 20:23:34 0° 347° (NNW) 2,894 6.9 -4.9°
Reaches altitude 10° 20:25:49 10° 345° (NNW) 1,979 6.1 -5.2°
Maximum altitude 20:30:09 66° 264° (W) 667 4.1 -5.9°
Drops below altitude 10° 20:34:25 10° 182° (S) 1,945 6.4 -6.5°
Sets 20:36:37 0° 180° (S) 2,839 7.2 -6.9°
